This demonstration page uses our WeatherBlox Daily Observations layout. Learn more.

Left ArrowRight Arrow

39.95238, -75.16362

Hourly Observations for December 7, 2022

Temp ( °F °C ) Dew Point ( °F °C ) Humidity (%) Winds ( mph kmh ) Pressure ( in mb ) Visibility ( mi km ) Precip ( " mm )
12:03 am 00:03 Cloudy with Light Rain 54 12.2 54 12.2 100 100 WSW 5 7 30.21 1023 1 2 0.01 0.13
12:54 am 00:54 Cloudy with Mist and Fog 53 11.7 53 11.7 100 100 WSW 5 7 30.20 1023 1 2 0.01 0.25
1:37 am 01:37 Cloudy with Light Rain 53 11.7 53 11.7 100 100 WSW 6 9 30.21 1023 1 1 0.01 0.25
1:54 am 01:54 Cloudy with Light Rain 53 11.7 52 11.1 96 96 WSW 3 6 30.21 1023 1 1 0.02 0.51
2:35 am 02:35 Cloudy with Light Rain 53 11.7 52 11.1 96 96 WSW 7 11 30.22 1023 1 2 0.02 0.51
2:48 am 02:48 Cloudy with Mist and Fog 54 12 52 11 94 94 W 9 15 30.22 1023 1 1 0.03 0.76
2:54 am 02:54 Cloudy with Mist and Fog 52 11.1 52 11.1 100 100 W 8 13 30.22 1023 1 1 0.03 0.76
3:03 am 03:03 Cloudy with Light Rain 52 11.1 52 11.1 100 100 WSW 7 11 30.22 1023 1 2 0.01 0.13
3:26 am 03:26 Cloudy with Light Rain 52 11.1 52 11.1 100 100 SW 5 7 30.21 1023 1 2 0.01 0.13
3:54 am 03:54 Cloudy with Light Rain 53 11.7 52 11.1 96 96 WSW 7 11 30.20 1023 1 2 0.01 0.25
4:08 am 04:08 Cloudy with Light Rain 53 11.7 52 11.1 96 96 WSW 5 7 30.20 1023 2 2 0.01 0.25
4:54 am 04:54 Cloudy with Light Rain 52 11.1 52 11.1 100 100 SSW 3 6 30.20 1023 2 3 0.02 0.51
5:13 am 05:13 Cloudy with Mist and Fog 53 11.7 52 11.1 96 96 SE 3 6 30.20 1023 1 2 0.01 0.25
5:32 am 05:32 Cloudy with Mist and Fog 52 11.1 52 11.1 100 100 S 3 6 30.19 1022 2 2 0.01 0.25
5:54 am 05:54 Cloudy with Mist and Fog 53 11.7 52 11.1 96 96 Calm 30.19 1022 2 2 0.01 0.25
6:54 am 06:54 Cloudy with Drizzle 53 11.7 52 11.1 96 96 SSE 3 6 30.19 1022 1 2 0.01 0.13
7:36 am 07:36 Cloudy with Drizzle 53 11.7 53 11.7 100 100 WSW 5 7 30.20 1023 1 1 0.01 0.13
7:54 am 07:54 Cloudy with Drizzle 54 12.2 53 11.7 97 97 SW 3 6 30.20 1023 1 1 0.01 0.13
7:58 am 07:58 Cloudy with Drizzle 53 11.7 53 11.7 100 100 Calm 30.20 1023 1 1 0.01 0.13
8:07 am 08:07 Cloudy with Drizzle 53 11.7 53 11.7 100 100 Calm 30.20 1023 0 0 0.01 0.13
8:46 am 08:46 Cloudy with Fog 54 12.2 53 11.7 97 97 WSW 5 7 30.20 1023 1 1 0.01 0.13
8:54 am 08:54 Cloudy with Fog 54 12.2 54 12.2 100 100 WSW 6 9 30.20 1023 1 1 0.01 0.13
9:25 am 09:25 Cloudy with Mist and Fog 54 12.2 53 11.7 97 97 SW 6 9 30.19 1022 1 1 0.01 0.25
9:32 am 09:32 Cloudy with Mist and Fog 54 12.2 53 11.7 97 97 SSW 5 7 30.19 1022 1 1 0.01 0.25
9:43 am 09:43 Cloudy with Drizzle 54 12.2 54 12.2 100 100 SSW 3 6 30.18 1022 1 2 0.01 0.25
9:54 am 09:54 Cloudy with Drizzle 54 12.2 54 12.2 100 100 SW 5 7 30.19 1022 2 2 0.01 0.25
10:45 am 10:45 Cloudy with Drizzle 54 12.2 54 12.2 100 100 VRB 6 9 30.18 1022 1 1 0.01 0.13
10:54 am 10:54 Cloudy with Drizzle 54 12.2 54 12.2 100 100 SSW 6 9 30.17 1022 1 1 0.01 0.13
11:08 am 11:08 Cloudy with Mist and Fog 55 12.8 54 12.2 96 96 SW 7 11 30.17 1022 1 2 0.01 0.13
11:45 am 11:45 Cloudy with Drizzle 55 12.8 54 12.2 96 96 SW 9 15 30.16 1021 1 1 0.01 0.13
11:54 am 11:54 Cloudy with Drizzle 55 12.8 55 12.8 100 100 W 9 15 30.16 1021 1 1 0.01 0.13
12:07 pm 12:07 Cloudy with Drizzle 55 12.8 54 12.2 96 96 WSW 9 15 30.15 1021 1 1 0.01 0.13
12:18 pm 12:18 Cloudy with Mist and Fog 55 12.8 55 12.8 100 100 WSW 10 17 30.15 1021 1 2 0.01 0.13
12:54 pm 12:54 Cloudy with Mist and Fog 55 12.8 55 12.8 100 100 WSW 10 17 30.14 1021 2 3 0.01 0.13
1:00 pm 13:00 Cloudy with Mist and Fog 55 12.8 54 12.2 96 96 SW 10 17 30.14 1021 3 5 0.00 0.00
1:54 pm 13:54 Cloudy with Mist and Fog 55 12.8 54 12.2 96 96 WSW 10 17 30.13 1020 4 6 0.00 0.00
2:22 pm 14:22 Cloudy with Mist and Fog 55 12.8 54 12.2 96 96 WSW 8 13 30.12 1020 3 4 0.00 0.00
2:54 pm 14:54 Cloudy with Mist and Fog 55 12.8 54 12.2 96 96 WSW 9 15 30.12 1020 3 4 0.00 0.00
3:47 pm 15:47 Cloudy with Mist and Fog 55 12.8 54 12.2 96 96 W 7 11 30.13 1020 1 2 0.00 0.00
3:54 pm 15:54 Cloudy with Mist and Fog 55 12.8 54 12.2 96 96 WSW 7 11 30.12 1020 2 2 0.00 0.00
4:34 pm 16:34 Cloudy with Mist and Fog 55 12.8 54 12.2 96 96 SW 9 15 30.13 1020 1 1 0.00 0.00
4:54 pm 16:54 Cloudy with Mist and Fog 55 12.8 54 12.2 96 96 WSW 9 15 30.13 1020 1 1 0.00 0.00
5:54 pm 17:54 Cloudy with Mist and Fog 55 12.8 54 12.2 96 96 WSW 6 9 30.13 1020 2 2 0.00 0.00
6:08 pm 18:08 Cloudy with Mist and Fog 55 12.8 54 12.2 96 96 WSW 7 11 30.13 1020 1 1 0.00 0.00
6:54 pm 18:54 Cloudy with Fog 54 12.2 53 11.7 97 97 WSW 10 17 30.14 1021 1 1 0.00 0.00
7:50 pm 19:50 Cloudy with Mist and Fog 54 12 54 12 100 100 WSW 8 13 30.16 1021 4 6 0.00 0.00
7:54 pm 19:54 Cloudy with Mist and Fog 54 12.2 53 11.7 97 97 WSW 8 13 30.16 1021 4 6 0.00 0.00
8:02 pm 20:02 Cloudy with Mist and Fog 54 12.2 53 11.7 97 97 WSW 7 11 30.16 1021 6 10 0.00 0.00
8:54 pm 20:54 Cloudy with Mist and Fog 54 12.2 52 11.1 93 93 WSW 7 11 30.16 1021 6 10 0.00 0.00
9:33 pm 21:33 Cloudy with Mist and Fog 54 12.2 52 11.1 93 93 WSW 6 9 30.18 1022 5 8 0.00 0.00
9:54 pm 21:54 Cloudy with Mist and Fog 54 12.2 53 11.7 97 97 W 7 11 30.17 1022 5 8 0.00 0.00
10:27 pm 22:27 Cloudy with Mist and Fog 54 12.2 52 11.1 93 93 WSW 7 11 30.17 1022 6 10 0.00 0.00
10:54 pm 22:54 Cloudy with Mist and Fog 54 12.2 52 11.1 93 93 WSW 8 13 30.17 1022 6 10 0.00 0.00
11:24 pm 23:24 Mostly Cloudy with Mist and Fog 54 12.2 52 11.1 93 93 WNW 5 7 30.18 1022 6 10 0.00 0.00
11:54 pm 23:54 Mostly Cloudy with Mist and Fog 50 10 50 10 100 100 S 3 6 30.17 1022 6 10 0.00 0.00

Powered by AerisWeather